This demonstration page uses our WeatherBlox Daily Observations layout. Learn more.

Left ArrowRight Arrow

39.51506, -84.39828

Hourly Observations for August 12, 2022

Temp ( °F °C ) Dew Point ( °F °C ) Humidity (%) Winds ( mph kmh ) Pressure ( in mb ) Visibility ( mi km ) Precip ( " mm )
12:15 am 00:15 Clear 65 18.5 63 17 91 91 N 7 11 30.13 1020 10 16 0.00 0.00
12:35 am 00:35 Clear 65 18.1 63 17 93 93 N 3 6 30.13 1020 10 16 0.00 0.00
12:55 am 00:55 Clear 64 17.9 62 16.8 93 93 Calm 30.13 1020 10 16 0.00 0.00
1:15 am 01:15 Clear 64 17.8 61 16.3 91 91 NNW 5 7 30.13 1020 10 16 0.00 0.00
1:35 am 01:35 Clear 63 17.4 62 16.4 94 94 N 6 9 30.13 1020 10 16 0.00 0.00
1:55 am 01:55 Clear 63 17 61 16.3 96 96 NNW 5 7 30.14 1021 10 16 0.00 0.00
2:15 am 02:15 Clear 62 16.9 61 16.2 96 96 N 3 6 30.14 1021 10 16 0.00 0.00
2:35 am 02:35 Clear 62 16.4 60 15.6 95 95 N 3 6 30.14 1021 10 16 0.00 0.00
2:55 am 02:55 Clear 61 16.2 60 15.7 97 97 NNE 3 6 30.14 1021 10 16 0.00 0.00
3:15 am 03:15 Clear 62 16.6 61 15.9 96 96 NNE 6 9 30.14 1021 10 16 0.00 0.00
3:35 am 03:35 Clear 62 16.5 60 15.5 94 94 NNE 6 9 30.14 1021 10 16 0.00 0.00
3:55 am 03:55 Clear 62 16.5 60 15.4 93 93 N 6 9 30.14 1021 10 16 0.00 0.00
4:15 am 04:15 Clear 60 15.6 60 15.3 98 98 N 6 9 30.15 1021 10 16 0.00 0.00
4:35 am 04:35 Clear 60 15.5 60 15.4 99 99 NNW 5 7 30.15 1021 10 16 0.00 0.00
4:55 am 04:55 Clear 59 15.2 59 15.1 99 99 NNW 5 7 30.16 1021 10 16 0.00 0.00
5:15 am 05:15 Clear 59 15.1 59 15 99 99 N 5 7 30.16 1021 10 16 0.00 0.00
5:35 am 05:35 Clear 59 14.8 58 14.7 99 99 N 6 9 30.17 1022 10 16 0.00 0.00
5:55 am 05:55 Clear 58 14.6 58 14.4 99 99 N 5 7 30.17 1022 7 11 0.00 0.00
6:15 am 06:15 Clear 58 14.7 57 14 96 96 NNW 5 7 30.18 1022 7 11 0.00 0.00
6:35 am 06:35 Clear 58 14.5 57 13.8 96 96 NNW 5 7 30.18 1022 7 11 0.00 0.00
6:55 am 06:55 Sunny 58 14.4 57 13.8 96 96 N 6 9 30.19 1022 10 16 0.00 0.00
7:15 am 07:15 Sunny 58 14.5 57 13.8 96 96 N 5 7 30.20 1023 10 16 0.00 0.00
7:35 am 07:35 Sunny 59 14.9 57 14 94 94 N 6 9 30.20 1023 10 16 0.00 0.00
7:55 am 07:55 Sunny 60 15.5 57 14.1 91 91 N 6 9 30.21 1023 10 16 0.00 0.00
8:15 am 08:15 Sunny 62 16.6 57 14.1 85 85 N 6 9 30.20 1023 7 11 0.00 0.00
8:35 am 08:35 Sunny 64 17.5 57 13.8 79 79 N 7 11 30.21 1023 10 16 0.00 0.00
8:55 am 08:55 Sunny 64 17.8 56 13.3 75 75 N 8 13 30.21 1023 10 16 0.00 0.00
9:15 am 09:15 Sunny 65 18.3 55 12.6 69 69 N 10 17 30.21 1023 10 16 0.00 0.00
9:35 am 09:35 Sunny 67 19.3 54 12.4 64 64 N 12 19 30.21 1023 7 11 0.00 0.00
9:55 am 09:55 Sunny 67 19.7 52 11 57 57 N 10 17 30.21 1023 10 16 0.00 0.00
10:15 am 10:15 Sunny 69 20.6 51 10.4 52 52 NE 12 19 30.20 1023 10 16 0.00 0.00
10:35 am 10:35 Sunny 70 21 49 9.6 48 48 NE 13 20 30.20 1023 10 16 0.00 0.00
10:55 am 10:55 Sunny 71 21.5 49 9.6 47 47 ENE 10 17 30.20 1023 10 16 0.00 0.00
11:15 am 11:15 Sunny 72 22.3 51 10.3 47 47 ENE 8 13 30.20 1023 10 16 0.00 0.00
11:35 am 11:35 Sunny 72 22.3 52 10.9 48 48 ENE 8 13 30.20 1023 10 16 0.00 0.00
11:55 am 11:55 Sunny 72 22.1 52 11.1 50 50 ENE 3 6 30.20 1023 10 16 0.00 0.00
12:15 pm 12:15 Sunny 73 22.6 52 11.2 49 49 NNE 3 6 30.21 1023 10 16 0.00 0.00
12:35 pm 12:35 Sunny 73 22.5 53 11.6 50 50 NNW 5 7 30.20 1023 10 16 0.00 0.00
12:55 pm 12:55 Sunny 74 23.6 52 11.3 46 46 ENE 6 9 30.21 1023 10 16 0.00 0.00
1:15 pm 13:15 Sunny 75 24 52 11.1 44 44 NNE 8 13 30.20 1023 10 16 0.00 0.00
1:35 pm 13:35 Sunny 76 24.6 51 10.7 42 42 NE 7 11 30.18 1022 10 16 0.00 0.00
1:55 pm 13:55 Sunny 77 24.8 51 10.8 41 41 NNW 12 19 30.19 1023 10 16 0.00 0.00
2:15 pm 14:15 Sunny 77 24.8 51 10.3 40 40 ENE 10 17 30.17 1022 10 16 0.00 0.00
2:35 pm 14:35 Partly Cloudy 78 25.5 53 11.8 42 42 NNW 13 20 30.18 1022 10 16 0.00 0.00
2:55 pm 14:55 Partly Cloudy 78 25.5 53 11.9 43 43 N 12 19 30.18 1022 10 16 0.00 0.00
3:15 pm 15:15 Partly Cloudy 78 25.6 53 11.7 42 42 NNE 9 15 30.16 1021 10 16 0.00 0.00
3:35 pm 15:35 Partly Cloudy 78 25.4 53 11.7 42 42 NW 8 13 30.16 1021 10 16 0.00 0.00
3:55 pm 15:55 Partly Cloudy 79 25.9 52 11.1 40 40 N 9 15 30.16 1021 10 16 0.00 0.00
4:15 pm 16:15 Sunny 77 25.2 52 11.3 42 42 N 7 11 30.15 1021 10 16 0.00 0.00
4:35 pm 16:35 Sunny 78 25.4 53 11.5 42 42 N 9 15 30.15 1021 10 16 0.00 0.00
4:55 pm 16:55 Sunny 78 25.5 53 11.8 42 42 N 8 13 30.14 1021 10 16 0.00 0.00
5:15 pm 17:15 Sunny 78 25.5 52 11.3 41 41 N 7 11 30.14 1021 10 16 0.00 0.00
5:35 pm 17:35 Sunny 77 25.2 54 12.1 44 44 N 8 13 30.14 1021 10 16 0.00 0.00
5:55 pm 17:55 Sunny 77 24.8 54 12.1 45 45 N 8 13 30.13 1020 10 16 0.00 0.00
6:15 pm 18:15 Sunny 76 24.7 54 12.3 46 46 N 7 11 30.13 1020 10 16 0.00 0.00
6:35 pm 18:35 Sunny 75 23.7 55 12.7 50 50 NNW 7 11 30.14 1021 10 16 0.00 0.00
6:55 pm 18:55 Sunny 74 23.6 56 13.5 53 53 NNW 6 9 30.14 1021 10 16 0.00 0.00
7:15 pm 19:15 Sunny 75 23.8 56 13.2 51 51 N 8 13 30.13 1020 10 16 0.00 0.00
7:35 pm 19:35 Sunny 73 22.9 55 12.6 52 52 N 8 13 30.13 1020 10 16 0.00 0.00
7:55 pm 19:55 Sunny 71 21.5 57 14.1 63 63 NNW 5 7 30.13 1020 10 16 0.00 0.00
8:15 pm 20:15 Sunny 69 20.6 57 13.7 65 65 NW 6 9 30.14 1021 10 16 0.00 0.00
8:35 pm 20:35 Sunny 67 19.7 58 14.4 71 71 E 3 6 30.14 1021 10 16 0.00 0.00
8:55 pm 20:55 Clear 68 20 57 14 68 68 NNE 3 6 30.14 1021 10 16 0.00 0.00
9:15 pm 21:15 Clear 65 18.5 58 14.6 78 78 NNW 5 7 30.15 1021 10 16 0.00 0.00
9:35 pm 21:35 Clear 63 17.3 61 16.2 93 93 N 5 7 30.15 1021 10 16 0.00 0.00
9:55 pm 21:55 Clear 62 16.4 60 15.6 95 95 N 5 7 30.16 1021 10 16 0.00 0.00
10:15 pm 22:15 Clear 61 16.2 60 15.6 96 96 Calm 30.17 1022 10 16 0.00 0.00
10:35 pm 22:35 Clear 61 16.2 60 15.6 96 96 N 6 9 30.18 1022 10 16 0.00 0.00
10:55 pm 22:55 Clear 61 16.2 59 15 93 93 N 6 9 30.18 1022 10 16 0.00 0.00
11:15 pm 23:15 Clear 60 15.8 59 15.2 96 96 N 3 6 30.18 1022 10 16 0.00 0.00
11:35 pm 23:35 Clear 60 15.5 59 14.8 96 96 NNW 5 7 30.18 1022 10 16 0.00 0.00
11:55 pm 23:55 Clear 59 15 59 15 100 100 Calm 30.19 1022 10 16 0.00 0.00

Powered by AerisWeather